Content
SEND FEEDBACK

Daily
Averages
Monthly
Summary
United States of America

EAST FALMOUTH, MASSACHUSETTS


Home > North America > United States > Massachusetts
Elevation: 70 feet     Latitude: 41 37N     Longitude: 070 32W

WEATHER
 
SELECT A DAY
Number of Records: 269,337;   Date Range: 1/1/95 - 7/22/14
 
SHARE

PRINT THIS DATA

[ ← Previous Day ]
WEATHER ALMANAC - FEBRUARY 9, 2013
[ Next Day → ]
[ °C ]   °F
Weather ElementAverageHighLow
Temperature20.3 °F32 °F (12:35 am) (2:15 pm)
Dewpoint16.2 °F28.4 °F (12:35 am) (7:00 pm)
Humidity84.6 %100 % (3:55 am)68 % (8:15 pm)
Barometer29.71 in30.13 in (11:55 pm)29.25 in (12:35 am)
Wind Speed21 mph41.4 mph (12:55 am)
Wind Gust65.6 mph (12:55 am)
Weather ElementAverage
Visibility2.3 mi
Wind DirectionWNW (303.7 °)

Weather ElementTotal
Precipitation---
Heating Degree Days49 (Base 65)
Averaged from 71 records on February 9, 2013
WEATHER CONDITIONS BREAKOUT
WIND DIRECTION BREAKOUT
WEATHER BY HOUR - FEBRUARY 9, 2013
[ °C ]   °F
Local TimeTemperatureDewpointHumidityBarometerVisibilityWind DirectionWind SpeedGust SpeedPrecipitationEventsConditions
12:35 AM32.0 °F28.4 °F87 %29.25 in0.2 miNNE (30°)40.3 mph63.3 mph0.97 inSnowHeavy Snow
12:55 AM30.2 °F28.4 °F93 %29.25 in0.2 miNNE (30°)41.4 mph65.6 mph1.54 inSnowHeavy Snow
1:15 AM30.2 °F28.4 °F93 %29.25 in0.2 miNNE (30°)33.4 mph57.5 mph0.10 inSnowHeavy Snow
1:35 AM30.2 °F28.4 °F93 %29.25 in0.2 miNNE (30°)40.3 mph57.5 mph0.20 inSnowHeavy Snow
1:55 AM30.2 °F28.4 °F93 %29.27 in0.5 miNNE (20°)29.9 mph55.2 mph0.57 inSnowSnow
2:15 AM28.4 °F26.6 °F93 %29.27 in0.2 miNNE (20°)35.7 mph54.1 mph0.57 inSnowHeavy Snow
2:35 AM28.4 °F26.6 °F93 %29.32 in0.2 miNorth (360°)33.4 mph46.0 mph1.38 inSnowHeavy Snow
2:55 AM26.6 °F24.8 °F93 %29.33 in0.2 miNorth (10°)34.5 mph52.9 mph2.05 inSnowHeavy Snow
3:15 AM26.6 °F24.8 °F93 %29.36 in0.2 miNorth (360°)32.2 mph46.0 mph1.52 inSnowHeavy Snow
3:35 AM24.8 °F23.0 °F93 %29.37 in0.2 miNorth (350°)27.6 mph54.1 mph2.58 inSnowHeavy Snow
3:55 AM23.0 °F23.0 °F100 %29.39 in0.2 miNorth (350°)32.2 mph50.6 mph3.24 inSnowHeavy Snow
4:15 AM23.0 °F19.4 °F86 %29.42 in0.2 miNNW (330°)24.2 mph40.3 mph1.29 inSnowHeavy Snow
4:35 AM19.4 °F17.6 °F93 %29.42 in0.2 miNorth (350°)23.0 mph41.4 mph3.73 inSnowHeavy Snow
4:55 AM19.4 °F17.6 °F93 %29.41 in0.2 miNorth (350°)25.3 mph54.1 mph5.10 inSnowHeavy Snow
5:15 AM21.2 °F19.4 °F93 %29.42 in0.5 miNorth (350°)28.8 mph44.9 mph0.16 inSnowSnow
5:35 AM21.2 °F19.4 °F93 %29.45 in0.8 miNorth (350°)24.2 mph40.3 mph0.33 inSnowLight Snow
5:55 AM21.2 °F19.4 °F93 %29.46 in0.5 miNorth (350°)23.0 mph33.4 mph0.64 inSnowSnow
6:15 AM21.2 °F17.6 °F86 %29.49 in0.5 miNNW (340°)20.7 mph34.5 mph0.19 inSnowSnow
6:35 AM19.4 °F17.6 °F93 %29.51 in0.2 miNorth (350°)21.9 mph35.7 mph0.99 inSnowHeavy Snow
6:55 AM19.4 °F17.6 °F93 %29.53 in0.2 miNNW (330°)18.4 mph38.0 mph2.29 inSnowHeavy Snow
7:15 AM17.6 °F15.8 °F93 %29.55 in0.2 miNNW (330°)17.3 mph35.7 mph4.49 inSnowHeavy Snow
7:35 AM17.6 °F15.8 °F93 %29.56 in0.2 miNNW (330°)21.9 mph33.4 mph8.93 inSnowHeavy Snow
7:55 AM17.6 °F15.8 °F93 %29.57 in0.2 miNNW (340°)20.7 mph28.8 mph9.97 inSnowHeavy Snow
8:15 AM17.6 °F15.8 °F93 %29.58 in0.2 miNNW (340°)20.7 mph34.5 mph0.37 inSnowHeavy Snow
8:35 AM17.6 °F15.8 °F93 %29.59 in0.2 miNNW (330°)19.6 mph35.7 mph1.04 inSnowHeavy Snow
8:55 AM17.6 °F15.8 °F93 %29.60 in0.2 miNNW (340°)20.7 mph32.2 mph1.59 inSnowHeavy Snow
9:15 AM19.4 °F15.8 °F86 %29.61 in0.2 miNNW (340°)19.6 mph32.2 mph0.46 inSnowHeavy Snow
9:35 AM19.4 °F15.8 °F86 %29.62 in0.2 miNNW (340°)20.7 mph35.7 mph1.13 inSnowHeavy Snow
9:55 AM19.4 °F15.8 °F86 %29.64 in0.2 miNNW (330°)20.7 mph35.7 mph2.52 inSnowHeavy Snow
10:15 AM19.4 °F15.8 °F86 %29.64 in0.2 miNNW (340°)21.9 mph33.4 mph2.57 inSnowHeavy Snow
10:35 AM19.4 °F15.8 °F86 %29.65 in0.2 miNNW (340°)20.7 mph33.4 mph6.48 inSnowHeavy Snow
10:55 AM19.4 °F17.6 °F93 %29.66 in0.2 miNorth (350°)17.3 mph28.8 mph9.25 inSnowHeavy Snow
11:15 AM19.4 °F17.6 °F93 %29.66 in0.2 miNNW (340°)19.6 mph33.4 mph1.93 inSnowHeavy Snow
11:35 AM19.4 °F17.6 °F93 %29.67 in0.2 miNorth (350°)24.2 mph35.7 mph2.88 inSnowHeavy Snow
11:55 AM21.2 °F17.6 °F86 %29.68 in0.2 miNNW (330°)19.6 mph34.5 mph3.89 inSnowHeavy Snow
12:15 PM19.4 °F17.6 °F93 %29.70 in0.2 miNNW (330°)18.4 mph27.6 mph0.84 inSnowHeavy Snow
12:35 PM19.4 °F17.6 °F93 %29.71 in0.2 miNNW (330°)19.6 mph26.5 mph2.19 inSnowHeavy Snow
12:55 PM19.4 °F17.6 °F93 %29.72 in0.2 miNNW (330°)20.7 mph28.8 mph5.82 inSnowHeavy Snow
1:15 PM19.4 °F17.6 °F93 %29.73 in0.2 miNNW (340°)21.9 mph31.1 mph2.20 inSnowHeavy Snow
1:35 PM21.2 °F15.8 °F80 %29.75 in0.2 miNNW (340°)15.0 mph28.8 mph4.21 inSnowHeavy Snow
1:55 PM21.2 °F15.8 °F80 %29.75 in0.5 miNNW (330°)18.4 mph28.8 mph5.66 inSnowSnow
2:15 PM0.0 °F0.0 °F29.76 inNNW (330°)24.2 mph33.4 mph0.25 in
2:35 PM21.2 °F17.6 °F86 %29.78 in0.5 miNNW (330°)23.0 mph34.5 mph1.25 inSnowSnow
2:55 PM21.2 °F15.8 °F80 %29.81 in1.0 miNNW (340°)23.0 mph34.5 mph1.73 inSnowLight Snow
3:15 PM21.2 °F15.8 °F80 %29.83 in1.5 miNNW (330°)16.1 mph31.1 mph0.10 inSnowLight Snow
3:35 PM21.2 °F15.8 °F80 %29.84 in1.2 miNNW (330°)21.9 mph32.2 mph0.25 inSnowLight Snow
3:55 PM21.2 °F15.8 °F80 %29.86 in2.5 miNNW (330°)15.0 mph26.5 mph0.33 inSnowLight Snow
4:15 PM19.4 °F15.8 °F86 %29.86 in2.5 miNNW (330°)19.6 mph29.9 mph0.02 inSnowLight Snow
4:35 PM19.4 °F14.0 °F80 %29.88 in4.0 miNNW (330°)19.6 mph27.6 mph0.04 inSnowLight Snow
4:55 PM19.4 °F14.0 °F80 %29.89 in5.0 miNNW (330°)19.6 mph32.2 mph0.05 inSnowLight Snow
5:15 PM19.4 °F14.0 °F80 %29.91 in3.0 miNNW (330°)18.4 mph31.1 mph0.01 inSnowLight Snow
5:35 PM19.4 °F14.0 °F80 %29.94 in7.0 miNNW (330°)16.1 mph25.3 mph0.02 inSnowLight Snow
5:55 PM19.4 °F14.0 °F80 %29.95 in5.0 miNNW (330°)20.7 mph31.1 mph0.04 inSnowLight Snow
6:15 PM19.4 °F14.0 °F80 %29.97 in3.0 miNNW (330°)17.3 mph28.8 mphSnowLight Snow
6:35 PM19.4 °F12.2 °F74 %29.98 in10.0 miNNW (330°)15.0 mph28.8 mphSnowLight Snow
6:55 PM19.4 °F12.2 °F74 %29.99 in9.0 miNNW (330°)16.1 mph26.5 mphSnowLight Snow
7:15 PM19.4 °F12.2 °F74 %30.01 in0.8 miNW (320°)15.0 mph28.8 mphSnowLight Snow
7:35 PM19.4 °F12.2 °F74 %30.02 in10.0 miNNW (330°)17.3 mph25.3 mphSnowLight Snow
7:55 PM19.4 °F12.2 °F74 %30.03 in4.0 miNW (320°)15.0 mph23.0 mphSnowLight Snow
8:15 PM19.4 °F10.4 °F68 %30.04 in9.0 miNNW (330°)12.7 mph24.2 mphSnowLight Snow
8:35 PM19.4 °F12.2 °F74 %30.06 in10.0 miNW (320°)13.8 mph20.7 mphOvercast
8:55 PM19.4 °F10.4 °F68 %30.06 in10.0 miNW (320°)12.7 mph23.0 mphOvercast
9:15 PM17.6 °F10.4 °F73 %30.07 in5.0 miNW (320°)12.7 mph25.3 mphHaze
9:35 PM17.6 °F8.6 °F68 %30.08 in5.0 miNW (320°)10.4 mph19.6 mphHaze
9:55 PM17.6 °F8.6 °F68 %30.08 in2.0 miNNW (330°)12.7 mph17.3 mphHaze
10:15 PM15.8 °F8.6 °F73 %30.09 in2.0 miNNW (330°)12.7 mph19.6 mphHaze
10:35 PM15.8 °F8.6 °F73 %30.10 in10.0 miNW (320°)12.7 mph21.9 mphOvercast
10:55 PM15.8 °F6.8 °F68 %30.11 in10.0 miNW (320°)15.0 mphOvercast
11:15 PM15.8 °F6.8 °F68 %30.12 in10.0 miNW (320°)12.7 mph20.7 mphOvercast
11:35 PM14.0 °F6.8 °F73 %30.12 in0.8 miNW (320°)11.5 mph18.4 mphHaze
11:55 PM14.0 °F6.8 °F73 %30.13 in10.0 miNW (320°)11.5 mphPartly Cloudy
Hourly data recorded from KFMH, located miles away from East Falmouth, Massachusetts







STORIES FROM OUR PARTNERS